FDX640 KLAX-KATL

Flight info

Callsign FDX640
Flight time N/A
Altitude 35000
Route DOTSS2 CLEEE PKE HIDAT KA27O NABOB J74 SJN J231 ACH TCC J78 IRW J14 LIT J66 BEATS RUSSA GLAVN2
Aircraft B77L/H-SDE1E2E3FGHIJ2J3J4J5M1RWXY/LB1D1

Departure

Time N/A
Airport Los Angeles International Airport (KLAX)

Arrival

Time 2026-05-05 04:15
Airport Hartsfield Jackson Atlanta International Airport (KATL)
Time Latitude Longitude Altitude Speed Heading
2026-05-05 04:00 33.74443 -84.73396 11936 ft 307 kts 132°
2026-05-05 04:00 33.73448 -84.71186 11624 ft 306 kts 107°
2026-05-05 04:00 33.73199 -84.68674 11357 ft 302 kts 91°
2026-05-05 04:00 33.73229 -84.66175 11057 ft 298 kts 90°
2026-05-05 04:01 33.73262 -84.63677 10755 ft 299 kts 90°
2026-05-05 04:01 33.73279 -84.61162 10457 ft 305 kts 91°
2026-05-05 04:01 33.73287 -84.58607 10299 ft 306 kts 91°
2026-05-05 04:01 33.73294 -84.56074 10161 ft 300 kts 91°
2026-05-05 04:02 33.73295 -84.53608 10062 ft 288 kts 91°
2026-05-05 04:02 33.73298 -84.51238 9825 ft 281 kts 91°
2026-05-05 04:02 33.73298 -84.48861 9209 ft 289 kts 91°
2026-05-05 04:02 33.73297 -84.46415 8586 ft 297 kts 91°
2026-05-05 04:03 33.73296 -84.43972 7976 ft 292 kts 91°
2026-05-05 04:03 33.73294 -84.41572 7360 ft 283 kts 92°
2026-05-05 04:03 33.73296 -84.39236 6752 ft 276 kts 92°
2026-05-05 04:03 33.73297 -84.36961 6132 ft 269 kts 92°
2026-05-05 04:04 33.73298 -84.34746 5480 ft 262 kts 93°
2026-05-05 04:04 33.73297 -84.32586 4862 ft 255 kts 93°
2026-05-05 04:04 33.73300 -84.30478 4280 ft 248 kts 94°
2026-05-05 04:04 33.73304 -84.28500 4048 ft 232 kts 94°
2026-05-05 04:05 33.73304 -84.26536 3987 ft 237 kts 94°
2026-05-05 04:05 33.73297 -84.24563 4087 ft 235 kts 94°
2026-05-05 04:05 33.73299 -84.22608 4054 ft 234 kts 94°
2026-05-05 04:05 33.73291 -84.20664 4037 ft 229 kts 94°
2026-05-05 04:06 33.73296 -84.18752 3963 ft 234 kts 93°
2026-05-05 04:06 33.73302 -84.17448 3993 ft 228 kts 92°
2026-05-05 04:06 33.73318 -84.15554 3981 ft 226 kts 93°
2026-05-05 04:06 33.73339 -84.13031 4011 ft 231 kts 93°
2026-05-05 04:07 33.73333 -84.11079 3989 ft 234 kts 94°
2026-05-05 04:07 33.73327 -84.09134 3967 ft 231 kts 94°
2026-05-05 04:07 33.73282 -84.07849 3951 ft 225 kts 106°
2026-05-05 04:07 33.72580 -84.06255 3970 ft 216 kts 141°
2026-05-05 04:08 33.71278 -84.05502 3978 ft 208 kts 176°
2026-05-05 04:08 33.69865 -84.05821 3981 ft 210 kts 204°
2026-05-05 04:08 33.68569 -84.06660 4013 ft 218 kts 212°
2026-05-05 04:08 33.67298 -84.07599 3959 ft 212 kts 211°
2026-05-05 04:09 33.66088 -84.08541 3968 ft 203 kts 220°
2026-05-05 04:09 33.65298 -84.09965 3988 ft 215 kts 252°
2026-05-05 04:09 33.65072 -84.11757 4019 ft 220 kts 261°
2026-05-05 04:09 33.64956 -84.13585 4029 ft 219 kts 264°
2026-05-05 04:10 33.64943 -84.15390 3990 ft 207 kts 268°
2026-05-05 04:10 33.64939 -84.17047 3994 ft 188 kts 265°
2026-05-05 04:10 33.64946 -84.18608 3996 ft 184 kts 266°
2026-05-05 04:10 33.64955 -84.20106 4024 ft 175 kts 266°
2026-05-05 04:11 33.64958 -84.21480 3984 ft 153 kts 266°
2026-05-05 04:11 33.64969 -84.22693 3993 ft 144 kts 262°
2026-05-05 04:11 33.64944 -84.23995 3730 ft 152 kts 266°
2026-05-05 04:11 33.64959 -84.25219 3524 ft 143 kts 265°
2026-05-05 04:12 33.64944 -84.26404 3407 ft 152 kts 264°
2026-05-05 04:12 33.64951 -84.27619 3159 ft 138 kts 265°
2026-05-05 04:12 33.64955 -84.28804 3013 ft 144 kts 265°
2026-05-05 04:12 33.64957 -84.30025 2791 ft 143 kts 264°
2026-05-05 04:13 33.64960 -84.31221 2563 ft 140 kts 264°
2026-05-05 04:13 33.64946 -84.32419 2401 ft 147 kts 264°
2026-05-05 04:13 33.64961 -84.33652 2171 ft 144 kts 265°
2026-05-05 04:13 33.64958 -84.34831 2021 ft 142 kts 265°
2026-05-05 04:14 33.64965 -84.36002 1832 ft 141 kts 264°
2026-05-05 04:14 33.64952 -84.37218 1650 ft 150 kts 267°
2026-05-05 04:14 33.64954 -84.38444 1454 ft 145 kts 268°
2026-05-05 04:14 33.64955 -84.39650 1257 ft 145 kts 269°
2026-05-05 04:15 33.64955 -84.40859 1075 ft 146 kts 269°
2026-05-05 04:15 33.64952 -84.42041 1011 ft 131 kts 270°
2026-05-05 04:15 33.64953 -84.42712 1011 ft 46 kts 270°
2026-05-05 04:15 33.65005 -84.42905 1011 ft 12 kts 323°
2026-05-05 04:16 33.65065 -84.42862 1011 ft 12 kts 90°
2026-05-05 04:16 33.65065 -84.42750 1011 ft 15 kts 90°
2026-05-05 04:16 33.65064 -84.42619 1011 ft 16 kts 91°
2026-05-05 04:16 33.65062 -84.42488 1011 ft 16 kts 91°
2026-05-05 04:17 33.65066 -84.42357 1011 ft 16 kts 89°
2026-05-05 04:17 33.65064 -84.42226 1011 ft 16 kts 91°
2026-05-05 04:17 33.65064 -84.42094 1011 ft 16 kts 90°
2026-05-05 04:17 33.65063 -84.41961 1011 ft 16 kts 91°
2026-05-05 04:18 33.65096 -84.41892 1011 ft 9 kts 24°
2026-05-05 04:18 33.65201 -84.41883 1011 ft 23 kts
2026-05-05 04:18 33.65353 -84.41813 1011 ft 24 kts 31°
2026-05-05 04:18 33.65379 -84.41794 1011 ft 0 kts 31°
2026-05-05 04:20 33.65417 -84.41759 1011 ft 3 kts 56°
2026-05-05 04:21 33.65456 -84.41698 1011 ft 6 kts 36°
2026-05-05 04:21 33.65492 -84.41669 1011 ft 7 kts 32°
2026-05-05 04:21 33.65515 -84.41652 1011 ft 0 kts 32°